Regional Weather Roundup
Issued by NWS

Home | Current Version | Previous Version | Graphics & Text | Print | Product List | Glossary On
Versions: 1 2 3 4 5 6 7 8 9 10 11 12 13 14 15 16 17 18 19 20 21 22 23 24 25 26 27 28 29 30 31 32 33 34 35 36 37 38 39 40 41 42 43 44 45 46 47 48 49 50
000
ASUS43 KMKX 240421
RWRWI

WISCONSIN REGIONAL WEATHER ROUNDUP
NATIONAL WEATHER SERVICE MILWAUKEE/SULLIVAN WI
1100 PM CDT WED MAY 23 2018

NOTE: "FAIR" INDICATES FEW OR NO CLOUDS BELOW 12,000 FEET WITH NO
SIGNIFICANT WEATHER AND/OR OBSTRUCTIONS TO VISIBILITY.

WIZ001-002-006>008-014>016-023>028-240500-
NORTHWEST WISCONSIN

CITY           SKY/WX    TMP DP  RH WIND       PRES   REMARKS
SUPERIOR ARPT  FAIR      52  47  81 CALM      30.10S
ASHLAND        FAIR      57  54  89 CALM      30.10S
HAYWARD        MOCLDY    65  60  84 CALM      30.12R
SIREN          MOCLDY    68  60  75 CALM      30.10S
CUMBERLAND     FAIR      64  55  72 CALM      30.12R
RICE LAKE      FAIR      67  60  76 SE6       30.13S
CHETEK         FAIR      66  62  85 CALM      30.12S
LADYSMITH      FAIR      66  60  79 SE5       30.15S
EAU CLAIRE     FAIR      71  62  73 SE8       30.11S
MENOMONIE      MOCLDY    71  62  73 SE6       30.11S
NEW RICHMOND   FAIR      70  60  70 SE6       30.10S
OSCEOLA        FAIR      71  61  71 SE6       30.11S
$$

WIZ003>005-009-010-017-018-240500-
NORTH CENTRAL WISCONSIN

CITY           SKY/WX    TMP DP  RH WIND       PRES   REMARKS
MANITOWISH WTR FAIR      58  58 100 CALM      30.14S
ARBOR VITAE    FAIR      64  57  78 CALM      30.14S
WOODRUFF       FAIR      64  57  78 CALM      30.14S
RHINELANDER    FAIR      66  60  81 SW3       30.16R
EAGLE RIVER    FAIR      64  55  72 SW3       30.14S
LAND O LAKES   FAIR      58  54  85 CALM      30.16R
PHILLIPS       FAIR      65  61  86 S3        30.14S
TOMAHAWK       FAIR      63  58  86 CALM      30.16S
MEDFORD        FAIR      62  58  87 S5        30.15S
MERRILL        FAIR      62  60  93 CALM      30.15S
$$

WIZ029-030-035-036-043>047-240500-
CENTRAL WISCONSIN

CITY           SKY/WX    TMP DP  RH WIND       PRES   REMARKS
WAUSAU         FAIR      66  61  84 CALM      30.14R
MOSINEE        FAIR      63  59  88 S6        30.16S
MARSHFIELD     FAIR      65  61  87 S5        30.15R
STEVENS POINT  FAIR      61  59  94 CALM      30.16S
WAUPACA        FAIR      65  60  81 CALM      30.16R
WAUTOMA        FAIR      62  60  93 CALM      30.17R
WISC RAPIDS    FAIR      63  61  93 CALM      30.16S
CAMP DOUGLAS   FAIR      65  64  99 S6        30.14S
$$

WIZ011>013-019>022-031-037>040-048>050-240500-
NORTHEAST WISCONSIN

CITY           SKY/WX    TMP DP  RH WIND       PRES   REMARKS
ANTIGO         FAIR      60  57  91 SW5       30.17S
SHAWANO        FAIR      69  58  66 CALM      30.15S
OCONTO         FAIR      66  58  75 S3        30.14R
STURGEON BAY   FAIR      64  56  75 S10       30.15S
GREEN BAY      FAIR      67  54  63 S6        30.15S
MANITOWOC      FAIR      63  48  58 S6        30.17S
APPLETON       MOCLDY    64  52  63 S6        30.15R
CLINTONVILLE   FAIR      65  56  73 S5        30.15R
OSHKOSH        FAIR      64  57  78 S7        30.16R
$$

WIZ032>034-041-042-053>061-240500-
SOUTHWEST WISCONSIN

CITY           SKY/WX    TMP DP  RH WIND       PRES   REMARKS
LA CROSSE      FAIR      69  63  81 E3        30.12R
SPARTA         FAIR      61  60  95 CALM      30.16R
VIROQUA        FAIR      69  62  79 SE6       30.17R
BOSCOBEL       FAIR      64  62  93 CALM      30.15R
PRAIRIE DU CHI FAIR      70  60  71 CALM      30.14R
PLATTEVILLE    FAIR      68  62  80 SE7       30.17S
$$

WIZ056-057-062-063-064-067-068-240500-
SOUTH CENTRAL WISCONSIN

CITY           SKY/WX    TMP DP  RH WIND       PRES   REMARKS
REEDSBURG      FAIR      65  64  93 CALM      30.16S
BARABOO/DELLS  FAIR      65  60  84 CALM      30.16F
LONE ROCK      FAIR      64  62  93 E3        30.15S
MINERAL POINT  FAIR      68  61  77 SE7       30.17F
MADISON        FAIR      65  60  84 CALM      30.16S
MIDDLETON      FAIR      63  62  95 CALM      30.18S
WATERTOWN      FAIR      64  60  86 CALM      30.18R
MONROE         FAIR      70  55  60 S8        30.18S
JANESVILLE     FAIR      66  55  68 SE3       30.18S
$$

WIZ051-052-058>065-066-070>072-240500-
SOUTHEAST WISCONSIN

CITY           SKY/WX    TMP DP  RH WIND       PRES   REMARKS
MILWAUKEE      FAIR      62  50  64 SW5       30.19R
WAUKESHA       FAIR      61  46  59 S3        30.20S
MILWAUKEE/TIMM FAIR      61  45  55 CALM      30.20S
RACINE         FAIR      54  51  90 SW5       30.21R
BURLINGTON     FAIR      60  54  80 CALM      30.19S
KENOSHA        FAIR      58  49  72 CALM      30.19S
FOND DU LAC    FAIR      62  54  74 S6        30.17S
SHEBOYGAN      FAIR      58  51  78 S5        30.18R
WEST BEND      FAIR      59  50  72 CALM      30.19S
JUNEAU         FAIR      65  58  78 SE7       30.19S
$$

LSZ147-162-240500-
LAKE SUPERIOR

STATION/POSITION TIME  TEMP    WIND        PRES    WAVE
                       AIR SEA DIR/SP/G            HT/PER
                 (UTC) (F)     (DEG/KT/KT) (MB)    (FT/S)
W MID LAKE BUOY  0350   42 36   10/  4/  6 1019.4R   0
DEVILS ISLAND    0400   45      40/  3/  4 1019.8R
SAXON HARBOR     0340   56      60/  1/  2 1018.6R
$$

LMZ867-665-643>646-240500-
LAKE MICHIGAN

STATION/POSITION TIME  TEMP    WIND        PRES    WAVE
                       AIR SEA DIR/SP/G            HT/PER
                 (UTC) (F)     (DEG/KT/KT) (MB)    (FT/S)
N MID LAKE BUOY  0400   41 37  180/ 10/ 10 1021.0
NORTHPORT PIER   0340   55     170/  2/  5 1020.3S
KEWAUNEE LAKESHO 0354   66     230/  9/ 13 1020.4R
SHEBOYGAN LAKESH 0400   61     210/ 10/ 11 1021.8R
PORT WASHINGTON  0340   56     170/  2/  3 1022.7S
ATWATER BUOY     0337   53 49  140/  4/  4 1022.3R   0
MILWAUKEE LAKESH 0400   64     210/  5/  5   N/A
S MID LAKE BUOY  0350   49 39  110/  6/  6 1022.8S   0
KENOSHA   LAKESH 0400   56                 1022.4
$$

TC  - TEMPERATURE IN CELSIUS
VSB - VISIBILITY IN STATUTE MILES
WCI - WIND CHILL INDEX
HX  - HEAT INDEX





USA.gov is the U.S. government's official web portal to all federal, state and local government web resources and services.